カタログに戻る

STARLINK-30283

運用中通信VLEO
NORAD 57680·PAYLOAD·🇺🇸 United States

打ち上げ Aug 22, 2023 から Vandenberg Space Force Base

Loading…

次のパス (今後24時間)

TLE

最新Source: CelesTrak SupGP

元期: Sep 15, 2026, 02:17 UTC

1 57680C 23124T   26258.09562500  .00422370  00000+0  52992-2 0  2582
2 57680  53.1609  42.7710 0001119  86.3240  16.2410 15.58891109    10

AllMySatでSTARLINK-30283をリアルタイム追跡

Download on the App Store